2020/07/08 23:30:47+0000,-42.11,-46.63,-35.83,-47.03,-55.36,-57.37
2020/07/08 23:31:50+0000,-41.06,-47.11,-35.64,-44.52,-55.32,-57.89
2020/07/08 23:32:42+0000,-41.04,-46.56,-34.40,-47.15,-55.42,-57.84
2020/07/08 23:33:34+0000,-40.67,-46.89,-35.29,-46.43,-55.10,-57.55
2020/07/08 23:34:26+0000,-41.57,-46.15,-35.28,-44.72,-55.15,-57.86
2020/07/08 23:35:18+0000,-41.94,-46.72,-35.35,-47.64,-55.74,-58.18
2020/07/08 23:36:10+0000,-41.51,-47.59,-35.08,-50.99,-55.37,-57.17
2020/07/08 23:37:02+0000,-43.00,-46.49,-34.25,-47.33,-55.03,-58.06
2020/07/08 23:37:54+0000,-42.79,-47.37,-33.95,-47.62,-55.65,-58.33
2020/07/08 23:38:46+0000,-42.82,-46.00,-34.56,-49.98,-55.12,-57.77
2020/07/08 23:39:38+0000,-43.59,-46.26,-34.26,-46.99,-55.91,-57.19
2020/07/08 23:40:31+0000,-42.84,-45.45,-34.80,-50.24,-54.74,-58.05
2020/07/08 23:41:46+0000,-42.35,-46.28,-34.38,-47.01,-55.22,-58.10
2020/07/08 23:42:38+0000,-42.25,-45.74,-35.53,-47.23,-54.98,-57.17
2020/07/08 23:43:30+0000,-42.66,-45.92,-34.24,-46.22,-55.70,-57.71
2020/07/08 23:44:23+0000,-42.60,-45.79,-35.21,-51.39,-55.05,-58.06
2020/07/08 23:45:15+0000,-43.01,-45.74,-35.42,-46.47,-55.41,-57.42
2020/07/08 23:46:07+0000,-42.57,-45.13,-35.08,-46.50,-55.22,-57.40
2020/07/08 23:46:59+0000,-43.61,-48.12,-34.90,-51.19,-55.28,-58.21
2020/07/08 23:47:51+0000,-43.00,-47.87,-34.53,-50.61,-55.11,-57.38
2020/07/08 23:48:43+0000,-43.45,-47.05,-34.67,-50.71,-55.34,-56.90
2020/07/08 23:49:35+0000,-43.44,-48.77,-35.38,-49.97,-54.97,-57.66
2020/07/08 23:50:27+0000,-43.16,-48.16,-35.30,-46.53,-55.22,-58.04
2020/07/08 23:51:27+0000,-43.22,-44.70,-35.66,-46.70,-54.69,-57.81
2020/07/08 23:52:19+0000,-42.42,-47.21,-34.79,-50.83,-55.47,-58.43
2020/07/08 23:53:12+0000,-43.48,-47.22,-35.02,-50.44,-55.34,-57.03
2020/07/08 23:54:04+0000,-43.75,-48.07,-35.68,-50.65,-54.86,-57.96
2020/07/08 23:54:56+0000,-42.28,-48.09,-35.87,-46.40,-55.01,-57.67
2020/07/08 23:55:48+0000,-43.05,-47.49,-34.77,-50.00,-55.51,-57.71
2020/07/08 23:56:40+0000,-44.41,-48.50,-35.06,-50.92,-55.68,-57.53
2020/07/08 23:57:32+0000,-43.38,-47.46,-34.97,-45.33,-55.21,-57.69
2020/07/08 23:58:24+0000,-43.18,-47.46,-34.78,-46.28,-55.27,-57.59
2020/07/08 23:59:16+0000,-43.95,-48.06,-34.09,-50.09,-55.26,-57.84
2020/07/09 00:00:08+0000,-43.68,-47.92,-35.13,-50.70,-55.10,-57.80
2020/07/09 00:01:19+0000,-43.81,-48.40,-35.30,-50.50,-55.11,-58.28
2020/07/09 00:02:11+0000,-43.22,-47.04,-35.05,-50.17,-55.11,-56.99
2020/07/09 00:03:03+0000,-43.47,-47.70,-35.42,-50.40,-55.38,-57.71
2020/07/09 00:03:55+0000,-43.74,-48.40,-35.57,-47.99,-55.52,-57.63
2020/07/09 00:04:47+0000,-43.94,-48.10,-33.69,-51.46,-54.28,-57.68
2020/07/09 00:05:39+0000,-43.34,-48.65,-34.73,-49.85,-55.65,-56.52
2020/07/09 00:06:31+0000,-43.89,-47.88,-33.76,-46.38,-54.96,-57.23
2020/07/09 00:07:23+0000,-43.15,-48.13,-35.75,-46.39,-54.96,-57.51
2020/07/09 00:08:15+0000,-43.61,-46.98,-34.07,-49.95,-56.06,-58.28
2020/07/09 00:09:07+0000,-43.24,-47.46,-35.28,-49.27,-55.33,-57.26
2020/07/09 00:10:00+0000,-43.89,-48.29,-35.16,-46.42,-55.16,-58.10
2020/07/09 00:11:05+0000,-43.46,-48.30,-35.40,-50.11,-55.56,-57.79
2020/07/09 00:11:57+0000,-44.17,-48.35,-35.31,-49.86,-55.17,-57.11
2020/07/09 00:12:49+0000,-43.77,-47.11,-34.97,-49.84,-55.31,-58.47
2020/07/09 00:13:41+0000,-43.18,-47.19,-36.13,-46.51,-55.48,-57.64
2020/07/09 00:14:33+0000,-44.03,-46.66,-36.04,-49.94,-54.80,-57.92
2020/07/09 00:15:26+0000,-43.91,-46.56,-33.82,-50.41,-54.95,-57.62
2020/07/09 00:16:18+0000,-43.44,-47.92,-33.91,-50.12,-54.84,-57.78
2020/07/09 00:17:10+0000,-44.51,-47.53,-33.56,-65.59,-55.18,-57.62
2020/07/09 00:18:02+0000,-44.41,-46.23,-34.49,-50.09,-55.16,-57.78
2020/07/09 00:18:54+0000,-43.50,-46.89,-36.23,-64.71,-55.19,-58.25
2020/07/09 00:19:46+0000,-43.48,-47.34,-36.74,-48.85,-55.44,-57.53
2020/07/09 00:20:38+0000,-43.70,-47.50,-36.92,-67.00,-55.54,-58.35
2020/07/09 00:21:35+0000,-43.15,-47.52,-36.97,-63.65,-55.63,-57.62
2020/07/09 00:22:27+0000,-44.23,-46.78,-37.72,-48.93,-54.09,-57.71
2020/07/09 00:23:19+0000,-43.74,-47.09,-37.58,-49.56,-55.07,-57.55
2020/07/09 00:24:11+0000,-44.25,-47.37,-36.69,-45.74,-55.67,-58.09
2020/07/09 00:25:04+0000,-43.72,-47.27,-36.35,-49.12,-52.22,-58.25
2020/07/09 00:25:56+0000,-42.76,-47.68,-37.25,-46.75,-55.12,-57.90
2020/07/09 00:26:48+0000,-43.99,-47.49,-32.62,-49.83,-55.77,-57.67
2020/07/09 00:27:40+0000,-43.76,-47.95,-36.22,-64.57,-55.77,-57.53
2020/07/09 00:28:32+0000,-44.26,-47.83,-33.42,-50.11,-54.92,-57.40
2020/07/09 00:29:24+0000,-43.55,-44.13,-36.26,-67.06,-55.29,-57.73
2020/07/09 00:30:16+0000,-44.39,-49.37,-37.76,-45.11,-55.12,-58.11
2020/07/09 00:31:23+0000,-44.28,-48.51,-37.87,-66.90,-55.39,-57.61
2020/07/09 00:32:15+0000,-44.32,-48.61,-37.89,-45.67,-55.23,-57.74
2020/07/09 00:33:07+0000,-44.37,-48.78,-36.81,-65.38,-53.55,-58.22
2020/07/09 00:33:59+0000,-44.47,-48.64,-36.58,-47.32,-53.84,-57.70
2020/07/09 00:34:51+0000,-43.94,-49.05,-37.75,-55.77,-55.56,-57.82
2020/07/09 00:35:43+0000,-44.35,-49.38,-33.58,-44.91,-55.17,-57.73
2020/07/09 00:36:35+0000,-44.80,-49.81,-33.57,-49.22,-52.42,-58.34
2020/07/09 00:37:27+0000,-44.41,-49.87,-33.64,-48.90,-55.37,-57.50
2020/07/09 00:38:19+0000,-44.29,-49.94,-35.49,-47.65,-54.89,-58.00
2020/07/09 00:39:11+0000,-44.71,-49.24,-33.94,-47.91,-54.64,-57.22
2020/07/09 00:40:04+0000,-43.99,-49.47,-33.45,-47.94,-54.20,-57.75
2020/07/09 00:41:09+0000,-44.78,-48.75,-34.11,-48.21,-54.10,-57.80
2020/07/09 00:42:01+0000,-45.12,-49.62,-33.76,-45.41,-54.25,-57.09
2020/07/09 00:42:53+0000,-44.48,-49.21,-34.10,-47.37,-53.75,-57.19
2020/07/09 00:43:45+0000,-44.91,-48.77,-33.40,-44.42,-55.17,-57.15
2020/07/09 00:44:37+0000,-43.35,-49.69,-34.63,-44.97,-54.89,-57.84
2020/07/09 00:45:29+0000,-43.17,-49.67,-34.99,-48.32,-54.32,-57.82
2020/07/09 00:46:21+0000,-43.94,-49.38,-34.44,-44.65,-54.50,-57.37
2020/07/09 00:47:14+0000,-43.18,-49.27,-35.31,-48.27,-54.88,-57.82
2020/07/09 00:48:06+0000,-43.08,-49.84,-35.35,-48.43,-54.83,-57.43
2020/07/09 00:48:58+0000,-44.08,-49.95,-35.12,-47.77,-54.63,-57.32
2020/07/09 00:49:50+0000,-44.55,-49.17,-34.83,-48.26,-54.43,-57.65
2020/07/09 00:50:42+0000,-44.60,-49.81,-35.58,-48.47,-54.97,-57.54
2020/07/09 00:51:41+0000,-43.89,-49.17,-33.78,-48.36,-54.31,-57.74
2020/07/09 00:52:34+0000,-44.01,-49.20,-34.60,-44.65,-54.60,-57.25
2020/07/09 00:53:26+0000,-45.10,-49.39,-33.43,-47.62,-54.03,-57.67
2020/07/09 00:54:18+0000,-45.01,-49.70,-33.15,-48.68,-54.43,-57.30
2020/07/09 00:55:10+0000,-45.23,-50.06,-33.74,-47.70,-54.56,-57.46
2020/07/09 00:56:02+0000,-43.73,-48.76,-33.87,-44.76,-54.57,-57.62
2020/07/09 00:56:54+0000,-44.08,-49.06,-34.07,-48.60,-55.13,-57.47
2020/07/09 00:57:46+0000,-44.20,-49.66,-34.04,-48.81,-54.46,-57.40
2020/07/09 00:58:38+0000,-44.82,-49.61,-35.12,-47.49,-54.14,-57.53
2020/07/09 00:59:30+0000,-43.22,-48.99,-34.37,-45.02,-54.34,-58.13
2020/07/09 01:00:23+0000,-44.60,-49.72,-33.08,-45.05,-54.40,-57.26
2020/07/09 01:01:29+0000,-44.29,-50.69,-33.53,-48.81,-54.94,-57.54
2020/07/09 01:02:21+0000,-42.87,-50.27,-32.50,-47.84,-55.61,-57.50
2020/07/09 01:03:13+0000,-42.02,-49.66,-33.94,-48.89,-54.63,-57.89
2020/07/09 01:04:05+0000,-41.35,-51.05,-34.59,-45.17,-54.96,-57.85
2020/07/09 01:04:57+0000,-42.95,-50.23,-34.14,-49.04,-54.30,-57.75
2020/07/09 01:05:49+0000,-42.10,-50.55,-33.98,-49.30,-54.39,-57.48
2020/07/09 01:06:41+0000,-42.91,-50.64,-33.91,-45.35,-54.43,-57.55
2020/07/09 01:07:34+0000,-42.72,-50.01,-33.89,-49.26,-54.69,-57.46
2020/07/09 01:08:26+0000,-43.15,-50.15,-33.93,-49.17,-54.99,-57.48
2020/07/09 01:09:18+0000,-42.61,-50.02,-33.87,-49.17,-54.90,-57.79
2020/07/09 01:10:10+0000,-42.93,-50.91,-33.63,-44.74,-54.86,-57.66
2020/07/09 01:11:07+0000,-42.07,-50.14,-33.49,-44.45,-55.06,-57.81
2020/07/09 01:11:59+0000,-39.41,-50.03,-33.57,-48.11,-55.01,-57.64
2020/07/09 01:12:52+0000,-38.97,-50.22,-33.40,-48.23,-54.61,-57.57
2020/07/09 01:13:44+0000,-38.28,-49.05,-33.70,-44.61,-54.57,-57.35
2020/07/09 01:14:36+0000,-38.11,-50.66,-32.71,-46.02,-54.66,-57.49
2020/07/09 01:15:28+0000,-38.32,-50.88,-33.22,-49.71,-54.53,-57.64
2020/07/09 01:16:20+0000,-37.34,-49.82,-33.26,-49.24,-54.77,-57.15
2020/07/09 01:17:12+0000,-37.37,-50.76,-33.14,-48.27,-54.65,-57.18
2020/07/09 01:18:04+0000,-36.29,-48.84,-33.06,-49.20,-54.87,-57.70
2020/07/09 01:18:56+0000,-37.37,-48.24,-33.06,-47.79,-54.86,-57.45
2020/07/09 01:19:49+0000,-38.61,-49.01,-32.86,-48.41,-55.37,-57.41
2020/07/09 01:20:41+0000,-38.22,-49.85,-32.85,-45.49,-54.34,-57.78
2020/07/09 01:21:44+0000,-38.36,-49.27,-33.45,-48.48,-54.73,-57.69
2020/07/09 01:22:36+0000,-38.45,-49.90,-33.35,-48.41,-55.25,-58.27
2020/07/09 01:23:28+0000,-38.71,-49.36,-34.09,-45.66,-55.20,-56.94
2020/07/09 01:24:20+0000,-36.57,-50.13,-32.60,-64.85,-55.14,-57.54
2020/07/09 01:25:12+0000,-38.74,-49.52,-33.35,-48.87,-54.69,-57.29
2020/07/09 01:26:05+0000,-37.17,-50.24,-33.11,-48.83,-54.56,-57.06
2020/07/09 01:26:57+0000,-36.57,-49.95,-33.90,-45.92,-54.84,-57.62
2020/07/09 01:27:49+0000,-36.75,-49.84,-33.86,-49.80,-54.59,-57.16
2020/07/09 01:28:41+0000,-37.39,-50.30,-33.81,-49.53,-55.08,-57.74
2020/07/09 01:29:33+0000,-36.46,-48.48,-35.04,-48.43,-54.54,-57.30
2020/07/09 01:30:25+0000,-37.89,-47.03,-34.50,-44.52,-54.86,-57.32
2020/07/09 01:31:28+0000,-37.06,-48.47,-34.31,-48.63,-54.99,-57.19
2020/07/09 01:32:20+0000,-37.35,-47.60,-34.18,-49.22,-54.53,-57.42
2020/07/09 01:33:12+0000,-37.62,-48.13,-33.88,-48.10,-54.41,-57.55
2020/07/09 01:34:04+0000,-37.65,-47.17,-34.18,-49.00,-54.29,-57.78
2020/07/09 01:34:56+0000,-37.49,-47.02,-33.49,-45.84,-54.19,-57.54
2020/07/09 01:35:48+0000,-37.85,-48.59,-34.30,-47.97,-55.06,-57.87
2020/07/09 01:36:40+0000,-37.99,-49.24,-34.01,-48.98,-54.96,-57.39
2020/07/09 01:37:32+0000,-37.43,-50.02,-34.26,-45.93,-54.61,-57.59
2020/07/09 01:38:24+0000,-37.86,-49.89,-33.90,-45.80,-54.95,-57.36
2020/07/09 01:39:16+0000,-38.16,-50.70,-34.14,-49.18,-54.56,-57.77
2020/07/09 01:40:09+0000,-37.85,-49.69,-34.96,-49.47,-54.47,-57.63
2020/07/09 01:41:06+0000,-38.15,-49.99,-34.95,-49.00,-54.72,-57.40
2020/07/09 01:41:59+0000,-37.89,-50.23,-34.54,-45.49,-55.04,-57.39
2020/07/09 01:42:51+0000,-37.73,-49.66,-34.53,-46.32,-54.67,-58.22
2020/07/09 01:43:43+0000,-37.38,-49.93,-34.46,-49.79,-55.54,-57.88
2020/07/09 01:44:35+0000,-38.31,-49.97,-34.72,-49.58,-54.75,-57.29
2020/07/09 01:45:27+0000,-38.11,-49.50,-34.57,-44.24,-55.31,-57.29
2020/07/09 01:46:19+0000,-37.63,-50.09,-33.63,-48.00,-54.72,-57.00
2020/07/09 01:47:11+0000,-39.59,-50.52,-34.28,-49.50,-54.77,-57.34
2020/07/09 01:48:03+0000,-39.21,-49.83,-34.36,-48.35,-53.95,-57.58
2020/07/09 01:48:55+0000,-39.07,-50.31,-34.35,-48.32,-54.47,-57.80
2020/07/09 01:49:48+0000,-39.52,-50.28,-33.58,-45.95,-54.28,-57.51
2020/07/09 01:50:40+0000,-38.78,-50.22,-34.07,-45.74,-54.83,-57.08
2020/07/09 01:51:38+0000,-38.32,-50.73,-34.94,-44.95,-54.52,-57.64
2020/07/09 01:52:30+0000,-38.56,-50.89,-34.69,-48.45,-55.02,-57.53
2020/07/09 01:53:22+0000,-38.72,-50.54,-34.59,-48.64,-54.64,-57.85
2020/07/09 01:54:14+0000,-38.08,-49.59,-34.45,-44.57,-54.86,-57.92
2020/07/09 01:55:06+0000,-39.49,-51.33,-33.79,-45.86,-54.27,-57.39
2020/07/09 01:55:58+0000,-41.02,-50.02,-33.70,-48.71,-54.93,-56.95
2020/07/09 01:56:50+0000,-38.32,-51.37,-33.83,-49.25,-54.75,-57.16
2020/07/09 01:57:42+0000,-38.70,-50.21,-33.79,-48.09,-54.36,-57.75
2020/07/09 01:58:34+0000,-40.27,-50.62,-33.10,-48.91,-54.71,-57.46
2020/07/09 01:59:26+0000,-40.56,-50.41,-32.96,-45.62,-54.42,-57.40
2020/07/09 02:00:19+0000,-40.76,-49.96,-32.51,-47.66,-54.49,-57.74
2020/07/09 02:01:18+0000,-41.88,-50.25,-32.96,-48.04,-52.84,-57.77
2020/07/09 02:02:10+0000,-40.97,-49.38,-33.13,-47.84,-54.36,-57.80
2020/07/09 02:03:02+0000,-41.61,-50.78,-33.52,-48.25,-54.84,-57.64
2020/07/09 02:03:54+0000,-42.54,-50.59,-33.12,-45.24,-54.07,-57.50
2020/07/09 02:04:46+0000,-42.93,-48.78,-33.37,-47.84,-54.67,-57.04
2020/07/09 02:05:38+0000,-43.56,-49.68,-33.77,-47.88,-54.77,-57.20
2020/07/09 02:06:30+0000,-42.44,-50.08,-33.34,-46.44,-54.50,-57.69
2020/07/09 02:07:22+0000,-42.84,-50.12,-33.91,-46.22,-53.97,-57.43
2020/07/09 02:08:14+0000,-41.99,-48.98,-33.87,-45.81,-54.95,-57.13
2020/07/09 02:09:06+0000,-40.32,-50.69,-34.20,-48.69,-54.54,-57.46
2020/07/09 02:09:59+0000,-41.83,-50.93,-33.19,-48.52,-54.16,-57.41
2020/07/09 02:10:51+0000,-41.78,-51.21,-33.78,-49.31,-54.56,-57.73
2020/07/09 02:11:48+0000,-42.56,-50.41,-34.95,-50.30,-55.08,-57.89
2020/07/09 02:12:40+0000,-41.51,-49.42,-34.42,-45.74,-54.00,-58.31
2020/07/09 02:13:32+0000,-41.27,-50.50,-36.35,-49.68,-54.33,-57.12
2020/07/09 02:14:24+0000,-41.59,-50.50,-33.67,-49.95,-54.80,-57.52
2020/07/09 02:15:17+0000,-40.62,-51.43,-34.58,-48.64,-54.63,-57.50
2020/07/09 02:16:09+0000,-42.88,-50.37,-37.66,-45.31,-54.42,-57.28
2020/07/09 02:17:01+0000,-43.27,-50.94,-35.28,-50.03,-54.31,-57.59
2020/07/09 02:17:53+0000,-41.65,-49.51,-35.41,-49.43,-54.49,-57.71
2020/07/09 02:18:45+0000,-40.80,-50.84,-39.33,-47.42,-54.42,-58.01
2020/07/09 02:19:37+0000,-39.80,-50.02,-38.44,-49.52,-54.57,-57.67
2020/07/09 02:20:29+0000,-41.65,-48.95,-34.48,-48.21,-54.64,-57.90
2020/07/09 02:21:27+0000,-39.93,-50.43,-36.10,-48.11,-54.76,-57.41
2020/07/09 02:22:19+0000,-41.69,-50.72,-35.38,-49.63,-54.73,-57.11
2020/07/09 02:23:11+0000,-39.74,-50.14,-38.73,-48.90,-54.88,-57.65
2020/07/09 02:24:03+0000,-41.10,-49.12,-39.41,-49.17,-55.00,-57.53
2020/07/09 02:24:55+0000,-42.52,-50.71,-39.02,-48.32,-54.80,-57.14
2020/07/09 02:25:47+0000,-42.57,-50.74,-34.30,-49.49,-54.41,-57.35
2020/07/09 02:26:39+0000,-42.02,-49.44,-34.96,-45.89,-54.74,-57.14
2020/07/09 02:27:31+0000,-41.31,-48.83,-36.94,-49.24,-54.65,-56.79
2020/07/09 02:28:23+0000,-40.29,-49.83,-34.44,-49.63,-54.81,-57.45
2020/07/09 02:29:15+0000,-41.53,-50.24,-37.77,-48.58,-54.78,-57.48
2020/07/09 02:30:08+0000,-41.55,-49.45,-37.11,-49.16,-54.37,-56.92
2020/07/09 02:31:07+0000,-40.72,-51.45,-37.75,-49.65,-55.03,-57.61
2020/07/09 02:31:59+0000,-42.03,-50.23,-36.50,-49.81,-55.37,-56.95
2020/07/09 02:32:51+0000,-39.74,-51.24,-33.91,-49.37,-54.49,-57.73
2020/07/09 02:33:43+0000,-42.03,-49.80,-34.27,-49.34,-55.23,-57.25
2020/07/09 02:34:35+0000,-42.23,-50.42,-33.09,-50.10,-54.70,-57.24
2020/07/09 02:35:27+0000,-41.53,-49.86,-34.47,-49.25,-54.99,-58.18
2020/07/09 02:36:19+0000,-40.92,-50.12,-34.22,-49.59,-54.59,-57.67
2020/07/09 02:37:11+0000,-40.52,-49.87,-38.11,-45.84,-54.88,-57.80
2020/07/09 02:38:03+0000,-39.83,-49.67,-38.13,-49.96,-54.30,-57.70
2020/07/09 02:38:55+0000,-41.50,-50.35,-37.11,-49.94,-54.51,-57.83
2020/07/09 02:39:48+0000,-41.20,-50.16,-37.22,-49.66,-54.95,-57.13
2020/07/09 02:40:40+0000,-40.81,-49.65,-36.12,-49.10,-54.61,-57.61
2020/07/09 02:41:40+0000,-42.19,-50.08,-34.16,-48.93,-54.38,-57.62
2020/07/09 02:42:32+0000,-42.42,-48.98,-35.66,-48.60,-54.01,-57.86
2020/07/09 02:43:24+0000,-41.52,-49.60,-34.25,-48.59,-54.25,-57.31
2020/07/09 02:44:16+0000,-43.27,-49.21,-35.63,-45.86,-54.35,-57.56
2020/07/09 02:45:08+0000,-42.26,-50.88,-33.59,-46.40,-54.81,-57.62
2020/07/09 02:46:00+0000,-41.70,-48.87,-33.70,-49.82,-54.56,-57.70
2020/07/09 02:46:52+0000,-40.82,-51.10,-33.27,-48.70,-54.51,-58.07
2020/07/09 02:47:44+0000,-41.18,-49.02,-32.83,-46.04,-54.43,-57.34
2020/07/09 02:48:36+0000,-41.51,-50.01,-33.04,-46.19,-55.23,-56.61
2020/07/09 02:49:28+0000,-42.23,-50.05,-33.04,-48.46,-53.77,-57.32
2020/07/09 02:50:21+0000,-40.30,-49.76,-33.90,-50.07,-54.60,-57.43
2020/07/09 02:51:18+0000,-41.18,-47.76,-35.88,-45.90,-53.51,-57.12
2020/07/09 02:52:10+0000,-42.08,-49.01,-34.10,-46.65,-53.28,-57.33
2020/07/09 02:53:02+0000,-42.04,-50.07,-33.94,-48.67,-54.88,-57.12
2020/07/09 02:53:54+0000,-42.76,-48.95,-33.44,-47.88,-54.76,-57.40
2020/07/09 02:54:46+0000,-41.85,-46.21,-34.21,-46.23,-54.91,-57.13
2020/07/09 02:55:38+0000,-41.48,-51.46,-33.55,-45.73,-54.51,-57.62
2020/07/09 02:56:30+0000,-42.72,-50.05,-34.01,-47.98,-52.65,-57.08
2020/07/09 02:57:22+0000,-43.09,-50.86,-33.89,-48.42,-54.17,-57.36
2020/07/09 02:58:14+0000,-43.03,-47.31,-34.15,-49.62,-54.46,-57.32
2020/07/09 02:59:06+0000,-41.59,-51.69,-33.89,-49.07,-53.13,-57.71
2020/07/09 02:59:59+0000,-41.89,-49.73,-34.49,-48.81,-54.45,-57.47
2020/07/09 03:00:51+0000,-42.23,-47.91,-33.87,-49.27,-54.11,-57.16
2020/07/09 03:01:49+0000,-42.43,-47.87,-33.93,-48.79,-54.07,-57.48
2020/07/09 03:02:41+0000,-43.59,-48.67,-34.07,-48.42,-53.79,-57.31
2020/07/09 03:03:33+0000,-41.54,-48.98,-34.48,-49.91,-53.66,-57.01
2020/07/09 03:04:25+0000,-42.41,-50.40,-34.16,-46.38,-52.14,-57.81
2020/07/09 03:05:17+0000,-42.56,-49.61,-33.99,-49.86,-54.74,-57.37
2020/07/09 03:06:09+0000,-41.85,-49.95,-34.69,-49.70,-55.12,-57.13
2020/07/09 03:07:01+0000,-41.67,-48.50,-33.67,-46.29,-53.99,-57.32
2020/07/09 03:07:53+0000,-42.27,-49.61,-33.66,-46.84,-54.18,-56.90
2020/07/09 03:08:45+0000,-42.73,-49.37,-32.92,-48.88,-54.04,-57.21
2020/07/09 03:09:37+0000,-42.83,-49.85,-33.52,-48.92,-53.79,-57.55
2020/07/09 03:10:30+0000,-42.23,-49.44,-34.34,-49.44,-54.22,-56.93
2020/07/09 03:11:33+0000,-42.36,-51.21,-33.79,-49.07,-54.64,-57.99
2020/07/09 03:12:26+0000,-41.75,-50.02,-33.07,-49.23,-53.93,-56.80
2020/07/09 03:13:18+0000,-42.57,-50.03,-33.25,-49.98,-54.66,-56.90
2020/07/09 03:14:10+0000,-42.25,-49.10,-32.94,-46.00,-54.61,-57.33
2020/07/09 03:15:02+0000,-42.35,-48.84,-33.39,-49.19,-52.95,-57.76
2020/07/09 03:15:54+0000,-41.57,-50.87,-33.51,-49.48,-54.12,-57.12
2020/07/09 03:16:46+0000,-42.29,-47.34,-32.91,-45.96,-54.08,-56.68
2020/07/09 03:17:38+0000,-41.93,-48.76,-33.52,-45.62,-54.51,-57.54
2020/07/09 03:18:30+0000,-42.79,-50.30,-34.12,-49.51,-54.71,-57.82
2020/07/09 03:19:22+0000,-42.25,-51.29,-33.94,-49.61,-54.52,-57.06
2020/07/09 03:20:15+0000,-42.28,-47.42,-34.27,-48.28,-54.56,-57.76
2020/07/09 03:21:17+0000,-42.24,-49.06,-34.69,-45.69,-54.43,-56.63
2020/07/09 03:22:09+0000,-42.29,-47.89,-33.61,-43.79,-55.44,-57.15
2020/07/09 03:23:01+0000,-38.28,-48.99,-34.80,-46.20,-54.86,-57.70
2020/07/09 03:23:53+0000,-38.80,-49.26,-34.21,-46.96,-54.82,-56.85
2020/07/09 03:24:45+0000,-39.00,-45.03,-34.52,-43.84,-54.92,-56.92
2020/07/09 03:25:37+0000,-34.91,-48.41,-33.93,-46.09,-54.91,-57.68
2020/07/09 03:26:29+0000,-42.22,-49.27,-34.09,-49.01,-55.17,-57.50
2020/07/09 03:27:22+0000,-42.62,-50.30,-34.70,-49.41,-54.95,-57.20
2020/07/09 03:28:14+0000,-41.35,-48.68,-34.65,-45.77,-55.61,-57.67
2020/07/09 03:29:06+0000,-41.94,-49.62,-33.94,-45.85,-55.25,-57.40
2020/07/09 03:29:58+0000,-42.49,-48.46,-34.89,-48.56,-54.95,-57.33
2020/07/09 03:30:50+0000,-41.60,-49.85,-35.14,-47.16,-54.54,-57.96
2020/07/09 03:31:49+0000,-42.15,-48.31,-34.40,-49.19,-54.17,-57.58
2020/07/09 03:32:41+0000,-40.12,-49.28,-33.88,-49.46,-54.90,-57.37
2020/07/09 03:33:33+0000,-41.11,-50.12,-34.41,-48.03,-54.47,-57.49
2020/07/09 03:34:25+0000,-41.55,-47.60,-34.18,-48.27,-55.10,-57.04
2020/07/09 03:35:17+0000,-42.53,-47.32,-34.26,-49.40,-55.72,-57.79
2020/07/09 03:36:09+0000,-42.49,-49.17,-34.40,-46.29,-54.65,-57.43
2020/07/09 03:37:01+0000,-42.35,-47.50,-34.72,-48.52,-54.99,-57.04
2020/07/09 03:37:53+0000,-40.21,-49.05,-34.64,-48.38,-54.16,-57.28
2020/07/09 03:38:45+0000,-42.34,-48.20,-34.86,-45.41,-54.88,-57.69
2020/07/09 03:39:37+0000,-42.30,-50.14,-34.00,-45.74,-54.71,-57.37
2020/07/09 03:40:30+0000,-42.14,-47.69,-34.87,-45.89,-54.21,-57.43
2020/07/09 03:41:27+0000,-42.78,-48.74,-33.97,-45.85,-54.84,-57.76
2020/07/09 03:42:19+0000,-38.06,-46.25,-34.14,-45.93,-54.80,-57.34
2020/07/09 03:43:11+0000,-41.86,-48.37,-34.79,-48.70,-54.99,-57.59
2020/07/09 03:44:03+0000,-41.82,-48.26,-34.78,-48.70,-54.92,-57.65
2020/07/09 03:44:55+0000,-41.62,-49.05,-33.94,-45.27,-54.68,-57.12
2020/07/09 03:45:47+0000,-40.36,-47.55,-34.37,-49.04,-54.71,-57.16
2020/07/09 03:46:39+0000,-42.06,-49.42,-34.51,-49.40,-55.04,-57.23
2020/07/09 03:47:31+0000,-42.34,-50.22,-34.10,-45.20,-54.28,-57.65
2020/07/09 03:48:23+0000,-40.61,-49.43,-34.21,-48.18,-54.75,-57.23
2020/07/09 03:49:15+0000,-39.59,-47.63,-34.05,-49.84,-54.91,-57.65
2020/07/09 03:50:08+0000,-41.43,-49.02,-34.43,-49.94,-55.09,-57.50
2020/07/09 03:51:05+0000,-40.71,-47.66,-35.08,-49.95,-54.41,-57.77
2020/07/09 03:51:57+0000,-41.33,-47.07,-34.33,-45.57,-54.62,-57.54
2020/07/09 03:52:49+0000,-41.71,-48.41,-33.71,-48.79,-54.87,-57.28
2020/07/09 03:53:42+0000,-41.83,-47.90,-34.30,-48.79,-54.71,-57.15
2020/07/09 03:54:34+0000,-34.77,-47.41,-33.58,-49.38,-55.01,-57.35
2020/07/09 03:55:26+0000,-41.66,-48.18,-34.15,-45.67,-55.06,-57.66
2020/07/09 03:56:18+0000,-41.13,-47.22,-33.98,-49.85,-54.39,-58.00
2020/07/09 03:57:10+0000,-41.26,-48.32,-34.41,-49.13,-55.11,-57.72
2020/07/09 03:58:02+0000,-40.97,-46.70,-34.84,-49.71,-54.68,-57.99
2020/07/09 03:58:54+0000,-41.14,-47.78,-33.92,-48.60,-54.91,-57.63
2020/07/09 03:59:47+0000,-41.13,-48.28,-34.12,-49.61,-54.41,-57.90
2020/07/09 04:00:39+0000,-42.16,-49.67,-34.20,-49.46,-54.65,-57.48
2020/07/09 04:01:36+0000,-41.50,-46.77,-34.13,-48.72,-54.97,-57.73
2020/07/09 04:02:29+0000,-41.40,-49.59,-34.36,-45.99,-55.15,-57.95
2020/07/09 04:03:21+0000,-39.62,-50.84,-34.48,-49.20,-55.28,-57.68
2020/07/09 04:04:13+0000,-41.40,-47.54,-34.06,-48.57,-54.75,-57.30
2020/07/09 04:05:05+0000,-42.18,-51.01,-33.83,-49.64,-55.18,-57.53
2020/07/09 04:05:57+0000,-40.99,-48.20,-34.74,-46.38,-54.74,-57.49
2020/07/09 04:06:49+0000,-39.21,-47.62,-34.76,-49.96,-55.36,-57.38
2020/07/09 04:07:41+0000,-39.76,-46.24,-34.30,-49.74,-55.56,-57.16
2020/07/09 04:08:33+0000,-41.94,-47.60,-33.67,-50.63,-54.82,-57.09
2020/07/09 04:09:25+0000,-41.45,-48.21,-34.37,-49.63,-54.19,-57.88
2020/07/09 04:10:18+0000,-40.80,-46.12,-34.46,-49.52,-54.92,-57.71
2020/07/09 04:11:24+0000,-40.35,-49.51,-34.47,-47.43,-54.10,-57.73
2020/07/09 04:12:16+0000,-40.67,-44.04,-34.13,-48.69,-52.36,-57.54
2020/07/09 04:13:08+0000,-41.02,-45.82,-34.71,-48.53,-53.02,-57.80
2020/07/09 04:14:00+0000,-41.67,-49.33,-34.74,-47.83,-53.37,-57.41
2020/07/09 04:14:52+0000,-40.66,-50.46,-34.08,-48.21,-54.42,-57.42
2020/07/09 04:15:44+0000,-41.85,-44.70,-34.25,-48.61,-52.08,-57.77
2020/07/09 04:16:36+0000,-42.08,-51.65,-34.43,-48.95,-51.84,-57.36
2020/07/09 04:17:28+0000,-40.08,-49.68,-34.96,-48.24,-54.30,-57.89
2020/07/09 04:18:20+0000,-39.92,-50.31,-34.70,-49.40,-55.24,-58.01
2020/07/09 04:19:12+0000,-40.27,-48.17,-34.62,-48.92,-54.73,-57.41
2020/07/09 04:20:05+0000,-41.33,-49.18,-33.66,-49.01,-54.51,-57.54
2020/07/09 04:21:11+0000,-40.34,-46.66,-35.16,-49.13,-55.08,-57.62
2020/07/09 04:22:03+0000,-40.66,-48.16,-34.10,-49.36,-54.17,-57.76
2020/07/09 04:22:55+0000,-41.37,-46.58,-34.43,-48.48,-54.77,-57.50
2020/07/09 04:23:47+0000,-41.98,-46.94,-34.73,-48.92,-54.71,-56.83
2020/07/09 04:24:39+0000,-37.63,-48.60,-34.74,-49.64,-55.50,-57.67
2020/07/09 04:25:31+0000,-40.31,-47.29,-34.78,-48.93,-54.64,-56.88
2020/07/09 04:26:24+0000,-41.67,-47.49,-34.07,-48.95,-55.02,-57.70
2020/07/09 04:27:16+0000,-42.71,-48.40,-34.44,-49.83,-55.13,-57.88
2020/07/09 04:28:08+0000,-41.47,-49.26,-34.21,-49.11,-54.71,-57.92
2020/07/09 04:29:00+0000,-41.36,-48.16,-34.12,-49.00,-53.93,-57.53
2020/07/09 04:29:53+0000,-40.87,-49.71,-34.41,-48.39,-54.59,-57.74
2020/07/09 04:30:45+0000,-41.48,-49.94,-34.17,-49.22,-54.41,-57.52
2020/07/09 04:31:42+0000,-39.51,-49.04,-34.46,-49.83,-55.11,-57.65
2020/07/09 04:32:34+0000,-41.62,-48.87,-34.75,-50.75,-54.97,-57.91
2020/07/09 04:33:26+0000,-39.66,-49.78,-34.00,-49.98,-55.12,-57.83
2020/07/09 04:34:18+0000,-40.38,-49.29,-33.82,-50.55,-54.77,-57.62
2020/07/09 04:35:10+0000,-41.96,-47.40,-34.87,-49.57,-54.63,-57.80
2020/07/09 04:36:02+0000,-42.37,-49.61,-34.37,-48.94,-55.31,-57.32
2020/07/09 04:36:54+0000,-38.39,-48.58,-34.52,-50.14,-54.90,-57.44
2020/07/09 04:37:46+0000,-40.73,-50.60,-34.16,-49.87,-54.70,-57.54
2020/07/09 04:38:38+0000,-41.54,-50.15,-33.83,-49.69,-54.36,-57.59
2020/07/09 04:39:31+0000,-40.91,-48.63,-34.29,-48.91,-54.60,-57.05
2020/07/09 04:40:23+0000,-41.50,-50.33,-34.56,-49.22,-54.65,-57.56
2020/07/09 04:41:21+0000,-39.66,-50.01,-34.42,-48.94,-54.61,-57.78
2020/07/09 04:42:13+0000,-37.57,-48.18,-34.16,-49.95,-54.83,-57.42
2020/07/09 04:43:06+0000,-42.25,-50.70,-33.85,-50.01,-54.64,-57.52
2020/07/09 04:43:58+0000,-42.19,-48.94,-33.97,-49.30,-55.07,-57.11
2020/07/09 04:44:50+0000,-41.39,-47.77,-35.23,-49.25,-54.46,-57.05
2020/07/09 04:45:42+0000,-41.49,-48.55,-34.67,-50.34,-54.87,-57.13